Location: Cactus School
(34.5700°N, 118.0931°W)
Time: 03:24:19
(UTC-07:00)

Transit 4A - Pass Details

Date: 17 April 2024
Orbit: 871 x 971 km, 66.8° (Epoch: 20 May)

Event Time Altitude Azimuth Distance (km) Brightness Sun altitude
Rises 21:46:14 0° 349° (N) 3,464 11.6 -26.7°
Reaches altitude 10° 21:49:44 10° 11° (N) 2,525 10.5 -27.3°
Enters shadow 21:52:58 16° 45° (NE) 2,112 9.7 -27.8°
Maximum altitude 21:53:18 16° 49° (NE) 2,109 - -27.9°
Drops below altitude 10° 21:56:52 10° 87° (E) 2,536 - -28.4°
Sets 22:00:23 0° 108° (ESE) 3,486 - -29.0°
